Погода в Норденхаме

Германия     53°29′41″N   8°28′25″E
темп.,
°C
ветер,
м/с
пор.,
м/с
влажн.,
%
обл.,
%
осадки,
мм/ч
давл.,
гПа
погр.,
м
14 апреля, ср
ср1423:00+2зсз47855 0.0 1031257
02:00+2зсз47865 0.0 1030254
05:00+2зсз45855 0.0 1030223
08:00+4сз35785 0.1 1030328
11:00+6сз456393 0.2 10301033
14:00+7ссз56586 0.3 10301000
17:00+6ссз67632 0.0 1029800
20:00+4ссз45765 0.0 1029209
15 апреля, чт
чт1523:00+2св22854 0.0 103076
02:000всв22906 0.0 103045
05:000всв23904 0.0 103155
08:00+2св237315 0.0 1032111
11:00+7ссв3457100 0.0 1032674
14:00+8с4559100 0.0 10321052
17:00+8с566586 0.7 1031965
20:00+5св477358 0.8 1031126
16 апреля, пт
пт1623:00+3св47779 0.0 1031144
02:00+2ссв477795 0.0 1031147
05:00+3ссв478369 0.0 1030171
08:00+3св46855 0.0 1030197
11:00+7св45615 0.0 1030813
14:00+10ссв56505 0.0 10291192
17:00+10ссв56556 0.0 10281284
20:00+6св59690 0.0 1029238
17 апреля, сб
сб1723:00+3св46764 0.0 1029111
02:00+2св457961 0.0 102992
05:00+1св34845 0.0 102968
08:00+3св24745 0.0 1028134
11:00+8св23635 0.0 1028550
14:00+10с335554 0.0 10271041
17:00+10с446285 0.0 1026627
20:00+7ссв34725 0.0 102659
18 апреля, вс
вс1823:00+5в349190 0.0 102789
02:00+6всв3584100 0.0 1027151
05:00+5всв3483100 0.0 1026128
08:00+6всв3581100 0.0 1027179
11:00+9всв347263 0.0 1026411
14:00+12с456731 0.1 1026945
17:00+11с567317 0.2 1025384
20:00+8с46865 0.2 1025127